GW0208 Weather Reports


time (UTC)temp
C
wind
direction
speed
KPH
gust
KPH
rain 1hr
cm
rain 24hr
cm
rain mn
cm
humidity
%
barometer
mb
20260506011505 5 0 0.0 0.0 0.00 0.00 0.00 90 1012.0
20260506011003 5 0 0.0 0.0 0.00 0.00 0.00 90 1012.3
20260506010505 5 0 0.0 0.0 0.00 0.00 0.00 90 1012.3
20260506010220 5 0 0.0 0.0 0.00 0.00 0.00 90 1012.3
20260506005505 5 0 0.0 0.0 0.00 0.00 0.00 89 1012.3
20260506005005 5 14 0.0 3.2 0.00 0.00 0.00 89 1012.3
20260506004505 5 39 0.0 3.2 0.00 0.00 0.00 89 1012.3
20260506004005 5 36 0.0 3.2 0.00 0.00 0.00 88 1012.0
20260506003505 6 50 0.0 3.2 0.00 0.00 0.00 88 1012.5
20260506003003 6 42 1.6 6.4 0.00 0.00 0.00 88 1012.2
20260506002503 6 38 1.6 6.4 0.00 0.00 0.00 88 1012.4
20260506002005 6 35 3.2 11.3 0.00 0.00 0.00 89 1012.4
20260506001505 6 32 3.2 11.3 0.00 0.00 0.00 89 1012.3
20260506001005 6 28 1.6 11.3 0.00 0.00 0.00 89 1012.2
20260506000718 6 30 1.6 11.3 0.00 0.00 0.00 89 1012.4
20260506000005 6 31 0.0 11.3 0.00 0.00 0.00 89 1012.5
20260505235505 6 35 1.6 6.4 0.00 0.00 0.00 89 1012.5
20260505235005 6 36 3.2 6.4 0.00 0.00 0.00 90 1012.4
20260505234505 6 51 1.6 6.4 0.00 0.00 0.00 90 1012.3
20260505234005 6 66 0.0 6.4 0.00 0.00 0.00 90 1012.6
20260505233505 6 48 1.6 6.4 0.00 0.00 0.00 90 1012.5
20260505233217 6 55 1.6 11.3 0.00 0.00 0.00 90 1012.4
20260505232503 6 42 1.6 11.3 0.00 0.00 0.00 90 1012.6
20260505232005 6 23 0.0 6.4 0.00 0.00 0.00 90 1012.7
20260505231503 6 0 0.0 0.0 0.00 0.00 0.00 90 1012.6
20260505231005 6 0 0.0 0.0 0.00 0.00 0.00 90 1012.7
20260505230505 6 83 0.0 3.2 0.00 0.00 0.00 90 1012.6
20260505230004 6 67 0.0 6.4 0.00 0.00 0.00 90 1012.5
20260505225504 6 63 1.6 6.4 0.00 0.00 0.00 91 1012.5
20260505225219 6 64 0.0 6.4 0.00 0.00 0.00 91 1012.7
20260505224505 6 55 0.0 6.4 0.00 0.00 0.00 91 1012.6
20260505224003 6 38 1.6 6.4 0.00 0.00 0.00 91 1012.7
20260505223505 6 43 1.6 6.4 0.00 0.00 0.00 91 1012.6
20260505223005 6 46 0.0 6.4 0.00 0.00 0.00 90 1012.5
20260505222503 6 82 0.0 6.4 0.00 0.00 0.00 90 1012.9
20260505222217 6 214 0.0 6.4 0.00 0.00 0.00 90 1012.7
20260505221505 6 358 0.0 6.4 0.00 0.00 0.00 90 1012.7
20260505221005 6 13 0.0 6.4 0.00 0.00 0.00 90 1012.9
20260505220505 6 27 1.6 6.4 0.00 0.00 0.00 90 1012.7
20260505220005 6 42 1.6 6.4 0.00 0.00 0.00 90 1012.7
20260505215505 6 42 1.6 6.4 0.00 0.00 0.00 91 1012.6
20260505215003 6 33 1.6 6.4 0.00 0.00 0.00 91 1012.9
20260505214505 6 56 0.0 3.2 0.00 0.00 0.00 90 1012.9
20260505214005 6 73 0.0 6.4 0.00 0.00 0.00 90 1013.0
20260505213505 6 61 1.6 6.4 0.00 0.00 0.00 90 1013.0
20260505213005 6 51 3.2 6.4 0.00 0.00 0.00 90 1013.0
20260505212503 7 59 1.6 6.4 0.00 0.00 0.00 89 1013.0
20260505212005 7 63 1.6 6.4 0.00 0.00 0.00 89 1012.9
20260505211503 7 47 3.2 6.4 0.00 0.00 0.00 89 1013.1
20260505211005 7 37 3.2 6.4 0.00 0.00 0.00 89 1013.0
20260505210505 7 70 1.6 6.4 0.00 0.00 0.00 88 1012.8
20260505210003 7 73 1.6 6.4 0.00 0.00 0.00 88 1012.9
20260505205505 7 54 3.2 6.4 0.00 0.00 0.00 88 1012.9
20260505205003 7 55 1.6 6.4 0.00 0.00 0.00 87 1013.0
20260505204503 7 71 0.0 3.2 0.00 0.00 0.00 87 1013.1
20260505204006 7 47 1.6 3.2 0.00 0.00 0.00 87 1012.8
20260505203505 7 36 1.6 6.4 0.00 0.00 0.00 86 1012.9
20260505203005 7 45 1.6 6.4 0.00 0.00 0.00 86 1013.0
20260505202503 7 45 1.6 6.4 0.00 0.00 0.00 86 1013.0
20260505202005 8 37 3.2 11.3 0.00 0.00 0.00 85 1012.9
20260505201505 8 27 3.2 11.3 0.00 0.00 0.00 85 1012.9
20260505201005 8 31 3.2 6.4 0.00 0.00 0.00 85 1012.6
20260505200505 8 40 1.6 11.3 0.00 0.00 0.00 84 1012.9
20260505200003 8 46 3.2 14.5 0.00 0.00 0.00 84 1012.8
20260505195503 8 32 4.8 14.5 0.00 0.00 0.00 83 1012.9
20260505195005 8 27 6.4 19.3 0.00 0.00 0.00 83 1012.7
20260505194505 9 19 8.0 19.3 0.00 0.00 0.00 82 1012.7
20260505194003 9 19 8.0 19.3 0.00 0.00 0.00 81 1012.6
20260505193506 9 21 6.4 14.5 0.00 0.00 0.00 81 1012.8
20260505193005 9 27 6.4 22.5 0.00 0.03 0.00 81 1012.7
20260505192505 9 29 6.4 22.5 0.00 0.03 0.00 81 1012.8
20260505192220 10 26 6.4 19.3 0.00 0.03 0.00 81 1012.5
20260505191505 10 19 8.0 19.3 0.00 0.05 0.00 81 1012.7
20260505191005 10 11 8.0 22.5 0.00 0.05 0.00 81 1012.7
20260505190505 10 15 9.7 25.7 0.00 0.05 0.00 80 1012.7
20260505190008 10 7 9.7 25.7 0.00 0.05 0.00 80 1012.6
20260505185505 10 352 8.0 19.3 0.00 0.05 0.00 80 1012.7
20260505185220 10 356 8.0 19.3 0.00 0.05 0.00 80 1012.4
20260505184718 10 1 6.4 25.7 0.00 0.05 0.00 81 1012.5
20260505184005 10 38 6.4 25.7 0.00 0.05 0.00 81 1012.6
20260505183505 10 10 8.0 29.0 0.00 0.05 0.00 81 1012.5
20260505183005 11 349 9.7 29.0 0.00 0.05 0.00 81 1012.5
20260505182503 11 22 11.3 29.0 0.00 0.05 0.00 81 1012.2
20260505182003 11 29 11.3 37.0 0.00 0.05 0.00 81 1012.5
20260505181503 11 7 11.3 37.0 0.00 0.05 0.00 80 1012.3
20260505181217 11 8 11.3 29.0 0.00 0.05 0.00 80 1012.5
20260505180505 11 22 12.9 43.5 0.00 0.05 0.00 80 1012.4
20260505180005 11 359 12.9 43.5 0.00 0.05 0.00 79 1012.5
20260505175503 12 12 12.9 37.0 0.00 0.05 0.00 79 1012.6
20260505175003 12 5 11.3 29.0 0.00 0.05 0.00 78 1012.7
20260505174505 12 355 11.3 29.0 0.00 0.05 0.00 78 1012.6
20260505174005 12 360 12.9 29.0 0.00 0.05 0.00 78 1012.6
20260505173503 12 3 11.3 25.7 0.00 0.05 0.00 77 1012.6
20260505173006 12 3 11.3 33.8 0.00 0.05 0.00 76 1012.6
20260505172505 12 348 14.5 37.0 0.00 0.05 0.00 76 1012.5
20260505172003 12 4 16.1 37.0 0.00 0.05 0.00 75 1012.5
20260505171720 11 14 16.1 37.0 0.00 0.05 0.00 74 1012.4
20260505171005 12 20 11.3 37.0 0.00 0.05 0.00 72 1012.7
20260505170503 12 13 11.3 37.0 0.00 0.05 0.00 70 1012.6
20260505170003 12 6 9.7 33.8 0.00 0.05 0.00 71 1012.5
20260505165505 12 8 9.7 29.0 0.00 0.05 0.00 72 1012.3
20260505165005 12 23 9.7 29.0 0.00 0.05 0.00 73 1012.6
20260505164503 13 43 11.3 25.7 0.00 0.05 0.00 72 1012.4
20260505164005 13 36 9.7 33.8 0.00 0.05 0.00 71 1012.6
20260505163503 12 36 9.7 33.8 0.00 0.05 0.00 71 1012.5
20260505163005 13 45 11.3 33.8 0.00 0.05 0.00 70 1012.6
20260505162505 12 33 11.3 33.8 0.00 0.05 0.00 69 1012.6
20260505162005 12 23 8.0 25.7 0.00 0.05 0.00 72 1012.9
20260505161505 12 23 11.3 29.0 0.00 0.05 0.00 70 1012.6
20260505161003 12 31 14.5 29.0 0.00 0.05 0.00 70 1012.7
20260505160504 12 34 12.9 29.0 0.00 0.05 0.00 69 1012.6
20260505153005 12 23 14.5 29.0 0.00 0.23 0.00 74 1012.8
20260505152504 12 13 11.3 29.0 0.00 0.23 0.00 75 1012.8
20260505152005 12 18 11.3 37.0 0.00 0.25 0.00 77 1012.6
20260505151503 12 22 11.3 37.0 0.00 0.28 0.00 75 1012.7
20260505151005 13 27 9.7 25.7 0.00 0.28 0.00 71 1012.8
20260505150503 13 23 11.3 25.7 0.00 0.28 0.00 72 1013.0
20260505140505 13 21 11.3 40.2 0.00 0.36 0.00 71 1013.0
20260505130219 13 2 14.5 33.8 0.00 0.36 0.00 72 1013.0
20260505125003 13 10 16.1 40.2 0.00 0.38 0.00 71 1012.7
20260505124506 13 9 14.5 29.0 0.00 0.41 0.00 71 1012.9
20260505124005 14 11 12.9 33.8 0.00 0.43 0.00 71 1012.8
20260505123503 14 10 14.5 33.8 0.00 0.46 0.00 68 1012.8
20260505123003 13 3 12.9 37.0 0.00 0.48 0.00 66 1012.6
20260505122503 13 24 12.9 40.2 0.00 0.48 0.00 69 1012.6
20260505122221 13 40 14.5 40.2 0.00 0.48 0.00 69 1012.6
20260505121505 13 42 12.9 37.0 0.00 0.51 0.00 70 1012.4
20260505121005 13 35 14.5 37.0 0.00 0.51 0.00 68 1012.7
20260505120505 13 18 14.5 33.8 0.00 0.51 0.00 70 1012.7
20260505120005 13 13 12.9 33.8 0.00 0.51 0.00 67 1012.8
20260505115505 13 20 11.3 29.0 0.00 0.51 0.00 69 1012.7
20260505115219 13 36 11.3 29.0 0.00 0.51 0.00 69 1012.9
20260505114503 13 18 16.1 40.2 0.00 0.51 0.00 73 1012.7
20260505114005 13 14 16.1 40.2 0.00 0.51 0.00 70 1012.9
20260505113720 13 15 14.5 40.2 0.00 0.51 0.00 71 1012.7
20260505113217 13 13 16.1 29.0 0.00 0.51 0.00 71 1012.8
20260505112720 13 11 12.9 33.8 0.00 0.51 0.00 74 1012.8
20260505112003 13 12 12.9 33.8 0.00 0.61 0.00 71 1012.9
20260505111503 13 27 12.9 37.0 0.00 0.66 0.00 70 1013.1
20260505111003 13 38 11.3 37.0 0.00 0.66 0.00 69 1012.7
20260505110505 13 30 9.7 37.0 0.00 0.66 0.00 70 1012.6
20260505110218 14 7 11.3 37.0 0.00 0.66 0.00 67 1012.7
20260505102005 13 5 11.3 29.0 0.00 0.66 0.00 69 1013.0
20260505101505 13 21 11.3 29.0 0.00 0.66 0.00 70 1013.0
20260505101003 13 10 11.3 29.0 0.00 0.66 0.00 68 1013.3
20260505100503 13 5 11.3 29.0 0.00 0.66 0.00 69 1013.0
20260505100003 12 18 9.7 22.5 0.00 0.66 0.00 70 1012.9
20260505095505 12 31 8.0 22.5 0.00 0.66 0.00 70 1013.2
20260505095003 13 28 8.0 25.7 0.00 0.66 0.00 69 1013.0
20260505094505 13 28 11.3 25.7 0.00 0.66 0.00 68 1013.0
20260505094005 13 28 9.7 29.0 0.00 0.66 0.00 69 1013.0
20260505093505 13 23 9.7 29.0 0.00 0.66 0.00 69 1013.1
20260505093003 13 12 11.3 25.7 0.00 0.66 0.00 69 1012.8
20260505092503 13 6 11.3 25.7 0.00 0.66 0.00 69 1013.1
20260505092003 13 6 11.3 33.8 0.00 0.66 0.00 69 1013.2
20260505091505 13 14 12.9 33.8 0.00 0.66 0.00 68 1013.3
20260505091005 13 34 12.9 25.7 0.00 0.66 0.00 69 1013.0
20260505090503 13 32 14.5 25.7 0.00 0.66 0.00 71 1013.1
20260505090005 13 18 14.5 25.7 0.00 0.66 0.00 70 1013.3
20260505085505 13 22 12.9 25.7 0.00 0.66 0.00 71 1013.1
20260505085010 12 13 12.9 29.0 0.00 0.66 0.00 72 1013.1
20260505084717 12 7 12.9 29.0 0.00 0.66 0.00 72 1013.1
20260505084003 12 23 11.3 29.0 0.00 0.66 0.00 74 1013.3
20260505083503 12 26 11.3 29.0 0.00 0.66 0.00 74 1013.1
20260505083006 12 16 12.9 29.0 0.00 0.66 0.00 73 1013.2
20260505082718 12 6 12.9 29.0 0.00 0.66 0.00 74 1013.1
20260505082003 12 11 8.0 25.7 0.00 0.66 0.00 75 1013.3
20260505081503 12 13 8.0 25.7 0.00 0.66 0.00 75 1012.9
20260505081219 12 15 8.0 25.7 0.00 0.66 0.00 76 1013.1
20260505080505 12 33 6.4 22.5 0.00 0.66 0.00 77 1013.3
20260505080008 12 36 6.4 22.5 0.00 0.66 0.00 79 1013.2
20260505075505 12 42 6.4 19.3 0.00 0.66 0.00 81 1013.1
20260505075005 11 33 8.0 22.5 0.00 0.66 0.00 83 1013.2
20260505074718 11 28 6.4 25.7 0.00 0.66 0.00 84 1013.2
20260505074219 11 22 6.4 25.7 0.00 0.66 0.00 85 1013.2
20260505073718 11 30 4.8 22.5 0.00 0.66 0.00 88 1013.4
20260505073217 11 41 3.2 19.3 0.00 0.66 0.00 90 1013.3
20260505072503 11 54 1.6 14.5 0.00 0.66 0.00 92 1013.3
20260505072005 10 24 1.6 14.5 0.00 0.66 0.00 92 1013.2
20260505071505 10 9 1.6 11.3 0.00 0.66 0.00 92 1013.1
20260505071003 10 23 1.6 11.3 0.00 0.66 0.00 92 1013.2
20260505070505 10 47 3.2 14.5 0.00 0.66 0.00 92 1013.2
20260505070005 10 38 4.8 19.3 0.00 0.66 0.00 92 1013.1
20260505065503 10 15 4.8 19.3 0.00 0.69 0.00 92 1013.4
20260505065005 10 11 3.2 22.5 0.00 0.71 0.00 92 1013.2
20260505064503 10 7 1.6 22.5 0.00 0.74 0.00 92 1013.3
20260505064219 10 28 3.2 22.5 0.00 0.76 0.00 92 1013.3
20260505063503 10 8 4.8 19.3 0.00 0.81 0.00 92 1013.0
20260505063005 10 3 3.2 19.3 0.00 0.81 0.00 93 1013.2
20260505062505 10 34 4.8 19.3 0.00 0.86 0.00 93 1013.1
20260505062003 10 41 6.4 19.3 0.00 0.89 0.00 93 1013.4
20260505061505 10 29 6.4 19.3 0.00 0.94 0.00 93 1013.2
20260505061003 10 28 6.4 19.3 0.00 0.99 0.00 94 1013.1
20260505060504 10 31 6.4 19.3 0.00 1.04 0.00 94 1013.3
20260505060005 10 37 4.8 19.3 0.00 1.12 0.00 94 1013.2
20260505055720 10 38 4.8 19.3 0.00 1.12 0.00 94 1013.1
20260505055003 10 36 4.8 19.3 0.00 1.14 0.00 94 1013.2
20260505054718 10 36 6.4 22.5 0.00 1.14 0.00 94 1013.1
20260505054003 10 34 4.8 22.5 0.00 1.14 0.00 94 1013.0
20260505053503 10 12 6.4 25.7 0.00 1.14 0.00 95 1013.0
20260505053004 10 5 6.4 25.7 0.00 1.14 0.00 95 1013.2
20260505052505 10 4 4.8 19.3 0.00 1.14 0.00 95 1012.9
20260505052004 9 21 3.2 19.3 0.00 1.14 0.00 95 1013.1
20260505051505 9 19 3.2 22.5 0.00 1.14 0.00 94 1013.1
20260505051003 9 14 3.2 22.5 0.00 1.14 0.00 94 1012.9
20260505050505 9 36 3.2 19.3 0.00 1.14 0.00 94 1013.0
20260505041505 10 27 1.6 11.3 0.00 1.17 0.00 93 1012.9
20260505041003 10 25 3.2 11.3 0.00 1.17 0.00 93 1012.8
20260505040503 10 41 3.2 11.3 0.00 1.17 0.00 92 1012.7
20260505040005 10 34 1.6 14.5 0.00 1.17 0.00 92 1012.8
20260505035505 10 30 1.6 14.5 0.00 1.17 0.00 92 1012.9
20260505035222 10 28 1.6 14.5 0.00 1.17 0.00 92 1012.7
20260505034719 10 22 0.0 11.3 0.00 1.17 0.00 92 1012.9
20260505034005 10 37 0.0 6.4 0.00 1.17 0.00 91 1012.8
20260505033503 10 40 1.6 6.4 0.00 1.17 0.00 91 1012.6
20260505033217 10 35 1.6 6.4 0.00 1.17 0.00 91 1012.6
20260505032503 10 30 1.6 14.5 0.00 1.17 0.00 91 1012.8
20260505032007 10 24 1.6 14.5 0.00 1.17 0.00 92 1012.7
20260505031505 10 27 0.0 11.3 0.00 1.17 0.00 92 1012.7
20260505031003 10 29 0.0 3.2 0.00 1.17 0.00 92 1012.5
20260505030505 10 0 0.0 0.0 0.00 1.17 0.00 92 1012.8
20260505030005 10 38 0.0 3.2 0.00 1.17 0.00 92 1012.5
20260505025505 11 43 0.0 6.4 0.00 1.17 0.00 92 1012.6
20260505025005 11 50 1.6 11.3 0.00 1.17 0.00 92 1012.6
20260505024503 11 48 1.6 11.3 0.00 1.17 0.00 92 1012.5
20260505024003 11 55 3.2 11.3 0.00 1.17 0.00 92 1012.6
20260505023505 11 65 1.6 11.3 0.00 1.17 0.00 93 1012.7
20260505023003 10 70 0.0 11.3 0.00 1.17 0.00 93 1012.8
20260505022718 10 52 0.0 6.4 0.00 1.17 0.00 93 1012.6
20260505022003 10 45 1.6 11.3 0.00 1.17 0.00 93 1012.8
20260505021505 10 24 1.6 11.3 0.00 1.17 0.00 93 1012.7
20260505021219 10 11 1.6 11.3 0.00 1.17 0.00 93 1012.4
20260505020506 10 38 0.0 3.2 0.00 1.17 0.00 93 1012.7
20260505020217 10 38 0.0 3.2 0.00 1.17 0.00 93 1012.3
20260505015505 10 45 0.0 3.2 0.00 1.17 0.00 93 1012.6
20260505015005 10 40 0.0 6.4 0.00 1.17 0.00 93 1012.6
20260505014505 10 30 1.6 6.4 0.00 1.17 0.00 93 1012.6
20260505014003 10 35 1.6 6.4 0.00 1.17 0.00 93 1012.8
20260505013503 10 50 1.6 11.3 0.00 1.17 0.00 93 1012.8
20260505013005 10 39 3.2 11.3 0.00 1.17 0.00 93 1012.8
20260505012503 10 33 3.2 11.3 0.00 1.17 0.00 93 1012.7
20260505012221 10 32 1.6 11.3 0.00 1.17 0.00 93 1012.8
20260505011720 10 0 0.0 0.0 0.00 1.17 0.00 93 1012.9